| time (UTC) | temp C | wind direction | speed KPH | gust KPH | rain 1hr cm | rain 24hr cm | rain mn cm | humidity % | barometer mb |
| 20260504160131 | 24 | 190 | 12.9 | 22.5 | 0.00 | 0.00 | 0.00 | 65 | 1013.1 |
| 20260504151124 | 23 | 190 | 12.9 | 20.9 | 0.00 | 0.00 | 0.00 | 66 | 1013.4 |
| 20260504150624 | 23 | 190 | 9.7 | 20.9 | 0.00 | 0.00 | 0.00 | 65 | 1013.3 |
| 20260504150118 | 22 | 190 | 8.0 | 19.3 | 0.00 | 0.00 | 0.00 | 66 | 1013.3 |
| 20260504141112 | 20 | 190 | 8.0 | 17.7 | 0.00 | 0.00 | 0.00 | 66 | 1013.4 |
| 20260504140844 | 20 | 190 | 6.4 | 12.9 | 0.00 | 0.00 | 0.00 | 65 | 1013.4 |
| 20260504140107 | 20 | 190 | 6.4 | 16.1 | 0.00 | 0.00 | 0.00 | 64 | 1013.4 |
| 20260504130556 | 17 | 190 | 3.2 | 8.0 | 0.00 | 0.00 | 0.00 | 50 | 1013.8 |
| 20260504110650 | 13 | 190 | 0.0 | 0.0 | 0.00 | 0.00 | 0.00 | 25 | 1013.2 |
| 20260504110145 | 13 | 190 | 0.0 | 0.0 | 0.00 | 0.00 | 0.00 | 28 | 1013.1 |
| 20260504100357 | 14 | 190 | 0.0 | 0.0 | 0.00 | 0.00 | 0.00 | 45 | 1013.2 |
| 20260504081607 | 15 | 190 | 0.0 | 0.0 | 0.00 | 0.00 | 0.00 | 53 | 1013.8 |
| 20260504081337 | 15 | 190 | 0.0 | 0.0 | 0.00 | 0.00 | 0.00 | 52 | 1013.8 |
| 20260504080839 | 15 | 190 | 0.0 | 1.6 | 0.00 | 0.00 | 0.00 | 52 | 1013.8 |
| 20260504080108 | 15 | 190 | 1.6 | 6.4 | 0.00 | 0.00 | 0.00 | 53 | 1013.9 |
| 20260504070326 | 16 | 190 | 0.0 | 0.0 | 0.00 | 0.00 | 0.00 | 59 | 1014.9 |
| 20260504050534 | 16 | 190 | 1.6 | 6.4 | 0.00 | 0.00 | 0.00 | 66 | 1015.9 |
| 20260504050258 | 16 | 190 | 1.6 | 8.0 | 0.00 | 0.00 | 0.00 | 66 | 1015.9 |
| 20260504045528 | 16 | 190 | 1.6 | 8.0 | 0.00 | 0.00 | 0.00 | 66 | 1016.0 |
| 20260504045031 | 16 | 190 | 0.0 | 0.0 | 0.00 | 0.00 | 0.00 | 67 | 1016.1 |
| 20260504044531 | 16 | 190 | 0.0 | 3.2 | 0.00 | 0.00 | 0.00 | 67 | 1016.0 |
| 20260504044023 | 17 | 190 | 0.0 | 4.8 | 0.00 | 0.00 | 0.00 | 68 | 1016.1 |
| 20260504043522 | 17 | 190 | 1.6 | 4.8 | 0.00 | 0.00 | 0.00 | 68 | 1016.1 |
| 20260504043027 | 17 | 190 | 1.6 | 4.8 | 0.00 | 0.00 | 0.00 | 68 | 1016.2 |
| 20260504042524 | 17 | 190 | 1.6 | 4.8 | 0.00 | 0.00 | 0.00 | 68 | 1016.2 |
| 20260504042024 | 17 | 190 | 1.6 | 4.8 | 0.00 | 0.00 | 0.00 | 68 | 1016.2 |
| 20260504041519 | 17 | 190 | 1.6 | 8.0 | 0.00 | 0.00 | 0.00 | 68 | 1016.1 |
| 20260504041020 | 17 | 190 | 3.2 | 8.0 | 0.00 | 0.00 | 0.00 | 68 | 1016.1 |
| 20260504040528 | 17 | 190 | 3.2 | 8.0 | 0.00 | 0.00 | 0.00 | 68 | 1016.2 |
| 20260504040024 | 17 | 190 | 3.2 | 6.4 | 0.00 | 0.00 | 0.00 | 68 | 1016.2 |
| 20260504035519 | 17 | 190 | 1.6 | 6.4 | 0.00 | 0.00 | 0.00 | 68 | 1016.3 |
| 20260504035023 | 17 | 190 | 1.6 | 6.4 | 0.00 | 0.00 | 0.00 | 69 | 1016.3 |
| 20260504034516 | 17 | 190 | 3.2 | 6.4 | 0.00 | 0.00 | 0.00 | 69 | 1016.3 |
| 20260504034015 | 17 | 190 | 3.2 | 8.0 | 0.00 | 0.00 | 0.00 | 69 | 1016.4 |
| 20260504033523 | 17 | 190 | 3.2 | 8.0 | 0.00 | 0.00 | 0.00 | 69 | 1016.4 |
| 20260504033015 | 18 | 190 | 3.2 | 8.0 | 0.00 | 0.00 | 0.00 | 69 | 1016.3 |
| 20260504032515 | 18 | 190 | 4.8 | 9.7 | 0.00 | 0.00 | 0.00 | 69 | 1016.2 |
| 20260504032258 | 18 | 190 | 3.2 | 11.3 | 0.00 | 0.00 | 0.00 | 69 | 1016.1 |
| 20260504031743 | 17 | 190 | 1.6 | 11.3 | 0.00 | 0.00 | 0.00 | 69 | 1016.0 |
| 20260504031011 | 18 | 190 | 0.0 | 4.8 | 0.00 | 0.00 | 0.00 | 69 | 1016.0 |
| 20260504030516 | 18 | 190 | 1.6 | 4.8 | 0.00 | 0.00 | 0.00 | 69 | 1016.1 |
| 20260504030017 | 18 | 190 | 3.2 | 6.4 | 0.00 | 0.00 | 0.00 | 69 | 1016.0 |
| 20260504025511 | 18 | 190 | 3.2 | 6.4 | 0.00 | 0.00 | 0.00 | 68 | 1016.0 |
| 20260504025243 | 18 | 190 | 1.6 | 6.4 | 0.00 | 0.00 | 0.00 | 68 | 1016.0 |
| 20260504024507 | 18 | 190 | 0.0 | 0.0 | 0.00 | 0.00 | 0.00 | 67 | 1015.8 |
| 20260504024004 | 18 | 190 | 0.0 | 0.0 | 0.00 | 0.00 | 0.00 | 67 | 1015.8 |
| 20260504023502 | 18 | 190 | 0.0 | 0.0 | 0.00 | 0.00 | 0.00 | 66 | 1015.7 |
| 20260504023006 | 18 | 190 | 0.0 | 4.8 | 0.00 | 0.00 | 0.00 | 66 | 1015.6 |
| 20260504022738 | 18 | 190 | 0.0 | 4.8 | 0.00 | 0.00 | 0.00 | 65 | 1015.5 |
| 20260504021958 | 18 | 190 | 0.0 | 3.2 | 0.00 | 0.00 | 0.00 | 63 | 1015.4 |
| 20260504021502 | 18 | 190 | 0.0 | 0.0 | 0.00 | 0.00 | 0.00 | 63 | 1015.3 |
| 20260504020457 | 19 | 190 | 0.0 | 0.0 | 0.00 | 0.00 | 0.00 | 61 | 1015.4 |
| 20260504015955 | 19 | 190 | 0.0 | 0.0 | 0.00 | 0.00 | 0.00 | 61 | 1015.3 |
| 20260504015454 | 19 | 190 | 0.0 | 0.0 | 0.00 | 0.00 | 0.00 | 61 | 1015.4 |
| 20260504014954 | 19 | 190 | 0.0 | 0.0 | 0.00 | 0.00 | 0.00 | 60 | 1015.3 |
| 20260504014457 | 20 | 190 | 0.0 | 0.0 | 0.00 | 0.00 | 0.00 | 59 | 1015.2 |
| 20260504013948 | 20 | 190 | 0.0 | 0.0 | 0.00 | 0.00 | 0.00 | 59 | 1015.3 |
| 20260504013719 | 20 | 190 | 0.0 | 0.0 | 0.00 | 0.00 | 0.00 | 58 | 1015.2 |
| 20260504012946 | 20 | 190 | 0.0 | 0.0 | 0.00 | 0.00 | 0.00 | 58 | 1015.2 |
| 20260504012445 | 20 | 190 | 0.0 | 0.0 | 0.00 | 0.00 | 0.00 | 57 | 1015.2 |
| 20260504012217 | 20 | 190 | 0.0 | 0.0 | 0.00 | 0.00 | 0.00 | 57 | 1015.1 |
| 20260504011449 | 21 | 190 | 0.0 | 0.0 | 0.00 | 0.00 | 0.00 | 56 | 1015.1 |
| 20260504010942 | 21 | 190 | 0.0 | 0.0 | 0.00 | 0.00 | 0.00 | 55 | 1015.1 |
| 20260504010445 | 21 | 190 | 0.0 | 0.0 | 0.00 | 0.00 | 0.00 | 55 | 1015.1 |
| 20260504005946 | 21 | 190 | 0.0 | 0.0 | 0.00 | 0.00 | 0.00 | 54 | 1015.0 |
| 20260504005447 | 21 | 190 | 0.0 | 0.0 | 0.00 | 0.00 | 0.00 | 53 | 1015.1 |
| 20260504004942 | 22 | 190 | 0.0 | 0.0 | 0.00 | 0.00 | 0.00 | 53 | 1015.2 |
| 20260504004440 | 22 | 190 | 0.0 | 0.0 | 0.00 | 0.00 | 0.00 | 52 | 1015.3 |
| 20260504003935 | 22 | 190 | 0.0 | 0.0 | 0.00 | 0.00 | 0.00 | 52 | 1015.1 |
| 20260504003443 | 22 | 190 | 0.0 | 0.0 | 0.00 | 0.00 | 0.00 | 51 | 1015.2 |
| 20260504002939 | 22 | 190 | 0.0 | 0.0 | 0.00 | 0.00 | 0.00 | 50 | 1015.3 |
| 20260504002436 | 22 | 190 | 0.0 | 0.0 | 0.00 | 0.00 | 0.00 | 50 | 1015.3 |
| 20260504002210 | 23 | 190 | 0.0 | 0.0 | 0.00 | 0.00 | 0.00 | 49 | 1015.4 |
| 20260504001433 | 23 | 190 | 0.0 | 3.2 | 0.00 | 0.00 | 0.00 | 50 | 1015.5 |
| 20260504000933 | 23 | 190 | 0.0 | 4.8 | 0.00 | 0.00 | 0.00 | 48 | 1015.5 |
| 20260504000436 | 23 | 190 | 1.6 | 9.7 | 0.00 | 0.00 | 0.00 | 47 | 1015.6 |
| 20260503235924 | 23 | 190 | 3.2 | 9.7 | 0.00 | 0.00 | 0.00 | 46 | 1015.6 |
| 20260503235425 | 23 | 190 | 4.8 | 9.7 | 0.00 | 0.00 | 0.00 | 45 | 1015.5 |
| 20260503234942 | 23 | 190 | 4.8 | 11.3 | 0.00 | 0.00 | 0.00 | 44 | 1015.5 |
| 20260503234425 | 23 | 190 | 4.8 | 11.3 | 0.00 | 0.00 | 0.00 | 43 | 1015.5 |
| 20260503233919 | 24 | 190 | 6.4 | 12.9 | 0.00 | 0.00 | 0.00 | 43 | 1015.7 |
| 20260503233418 | 24 | 190 | 6.4 | 12.9 | 0.00 | 0.00 | 0.00 | 43 | 1015.6 |
| 20260503232918 | 24 | 190 | 6.4 | 12.9 | 0.00 | 0.00 | 0.00 | 43 | 1015.5 |
| 20260503232654 | 24 | 190 | 8.0 | 16.1 | 0.00 | 0.00 | 0.00 | 40 | 1015.7 |
| 20260503231919 | 24 | 190 | 8.0 | 16.1 | 0.00 | 0.00 | 0.00 | 41 | 1015.7 |
| 20260503231427 | 25 | 190 | 6.4 | 16.1 | 0.00 | 0.00 | 0.00 | 42 | 1015.8 |
| 20260503230922 | 25 | 190 | 6.4 | 14.5 | 0.00 | 0.00 | 0.00 | 44 | 1015.7 |
| 20260503225916 | 25 | 190 | 8.0 | 19.3 | 0.00 | 0.00 | 0.00 | 42 | 1015.8 |
| 20260503225412 | 25 | 190 | 8.0 | 17.7 | 0.00 | 0.00 | 0.00 | 43 | 1015.8 |
| 20260503224913 | 25 | 190 | 8.0 | 17.7 | 0.00 | 0.00 | 0.00 | 43 | 1016.0 |
| 20260503223906 | 25 | 190 | 6.4 | 12.9 | 0.00 | 0.00 | 0.00 | 44 | 1016.0 |
| 20260503223406 | 25 | 190 | 8.0 | 17.7 | 0.00 | 0.00 | 0.00 | 44 | 1016.0 |
| 20260503222910 | 25 | 190 | 8.0 | 17.7 | 0.00 | 0.00 | 0.00 | 44 | 1015.9 |
| 20260503222406 | 25 | 190 | 8.0 | 16.1 | 0.00 | 0.00 | 0.00 | 43 | 1016.1 |
| 20260503221907 | 25 | 190 | 8.0 | 16.1 | 0.00 | 0.00 | 0.00 | 43 | 1016.1 |
| 20260503221403 | 25 | 190 | 8.0 | 14.5 | 0.00 | 0.00 | 0.00 | 44 | 1016.2 |
| 20260503220902 | 25 | 190 | 8.0 | 17.7 | 0.00 | 0.00 | 0.00 | 44 | 1016.3 |
| 20260503220400 | 25 | 190 | 8.0 | 17.7 | 0.00 | 0.00 | 0.00 | 43 | 1016.3 |
| 20260503215903 | 25 | 190 | 8.0 | 14.5 | 0.00 | 0.00 | 0.00 | 44 | 1016.4 |
| 20260503215633 | 25 | 190 | 8.0 | 14.5 | 0.00 | 0.00 | 0.00 | 45 | 1016.3 |
| 20260503214859 | 25 | 190 | 6.4 | 11.3 | 0.00 | 0.00 | 0.00 | 43 | 1016.5 |
| 20260503214401 | 25 | 190 | 6.4 | 14.5 | 0.00 | 0.00 | 0.00 | 43 | 1016.8 |
| 20260503213856 | 26 | 190 | 8.0 | 16.1 | 0.00 | 0.00 | 0.00 | 41 | 1016.8 |
| 20260503213355 | 26 | 190 | 8.0 | 16.1 | 0.00 | 0.00 | 0.00 | 43 | 1016.7 |
| 20260503213132 | 26 | 190 | 4.8 | 14.5 | 0.00 | 0.00 | 0.00 | 44 | 1016.7 |
| 20260503212354 | 26 | 190 | 4.8 | 11.3 | 0.00 | 0.00 | 0.00 | 46 | 1016.8 |
| 20260503211856 | 26 | 190 | 8.0 | 12.9 | 0.00 | 0.00 | 0.00 | 41 | 1016.9 |
| 20260503211401 | 25 | 190 | 8.0 | 14.5 | 0.00 | 0.00 | 0.00 | 43 | 1016.8 |
| 20260503210859 | 26 | 190 | 9.7 | 17.7 | 0.00 | 0.00 | 0.00 | 43 | 1017.1 |
| 20260503210356 | 26 | 190 | 8.0 | 17.7 | 0.00 | 0.00 | 0.00 | 41 | 1017.3 |
| 20260503205354 | 26 | 190 | 6.4 | 17.7 | 0.00 | 0.00 | 0.00 | 41 | 1017.3 |
| 20260503204854 | 26 | 190 | 6.4 | 17.7 | 0.00 | 0.00 | 0.00 | 43 | 1017.3 |
| 20260503204354 | 26 | 190 | 6.4 | 17.7 | 0.00 | 0.00 | 0.00 | 41 | 1017.5 |
| 20260503203854 | 26 | 190 | 4.8 | 11.3 | 0.00 | 0.00 | 0.00 | 41 | 1017.6 |
| 20260503203626 | 26 | 190 | 6.4 | 16.1 | 0.00 | 0.00 | 0.00 | 41 | 1017.7 |
| 20260503202859 | 26 | 190 | 6.4 | 16.1 | 0.00 | 0.00 | 0.00 | 42 | 1017.8 |
| 20260503202352 | 26 | 190 | 6.4 | 16.1 | 0.00 | 0.00 | 0.00 | 43 | 1017.8 |
| 20260503201856 | 26 | 190 | 8.0 | 16.1 | 0.00 | 0.00 | 0.00 | 42 | 1017.9 |
| 20260503201352 | 26 | 190 | 6.4 | 19.3 | 0.00 | 0.00 | 0.00 | 42 | 1017.9 |
| 20260503200852 | 26 | 190 | 6.4 | 19.3 | 0.00 | 0.00 | 0.00 | 44 | 1018.0 |
| 20260503200354 | 26 | 190 | 6.4 | 14.5 | 0.00 | 0.00 | 0.00 | 41 | 1018.0 |
| 20260503195850 | 26 | 190 | 9.7 | 19.3 | 0.00 | 0.00 | 0.00 | 41 | 1018.1 |
| 20260503195348 | 26 | 190 | 8.0 | 19.3 | 0.00 | 0.00 | 0.00 | 41 | 1018.1 |
| 20260503194849 | 26 | 190 | 6.4 | 14.5 | 0.00 | 0.00 | 0.00 | 42 | 1018.2 |
| 20260503194619 | 26 | 190 | 8.0 | 11.3 | 0.00 | 0.00 | 0.00 | 42 | 1018.2 |
| 20260503193846 | 26 | 190 | 8.0 | 17.7 | 0.00 | 0.00 | 0.00 | 43 | 1018.4 |
| 20260503193344 | 26 | 190 | 8.0 | 17.7 | 0.00 | 0.00 | 0.00 | 43 | 1018.6 |
| 20260503192844 | 26 | 190 | 4.8 | 12.9 | 0.00 | 0.00 | 0.00 | 42 | 1018.6 |
| 20260503192606 | 26 | 190 | 6.4 | 14.5 | 0.00 | 0.00 | 0.00 | 43 | 1018.6 |
| 20260503191832 | 26 | 190 | 6.4 | 19.3 | 0.00 | 0.00 | 0.00 | 42 | 1018.8 |
| 20260503190833 | 26 | 190 | 4.8 | 14.5 | 0.00 | 0.00 | 0.00 | 42 | 1018.9 |
| 20260503190333 | 26 | 190 | 8.0 | 17.7 | 0.00 | 0.00 | 0.00 | 43 | 1019.0 |
| 20260503185834 | 26 | 190 | 4.8 | 17.7 | 0.00 | 0.00 | 0.00 | 44 | 1019.0 |
| 20260503185605 | 26 | 190 | 3.2 | 9.7 | 0.00 | 0.00 | 0.00 | 45 | 1019.0 |
| 20260503184829 | 26 | 190 | 6.4 | 9.7 | 0.00 | 0.00 | 0.00 | 43 | 1019.1 |
| 20260503184329 | 26 | 190 | 8.0 | 17.7 | 0.00 | 0.00 | 0.00 | 44 | 1019.2 |
| 20260503183829 | 25 | 190 | 6.4 | 17.7 | 0.00 | 0.00 | 0.00 | 42 | 1019.4 |
| 20260503183328 | 25 | 190 | 4.8 | 12.9 | 0.00 | 0.00 | 0.00 | 44 | 1019.4 |
| 20260503183100 | 25 | 190 | 4.8 | 14.5 | 0.00 | 0.00 | 0.00 | 41 | 1019.4 |
| 20260503182329 | 25 | 190 | 6.4 | 14.5 | 0.00 | 0.00 | 0.00 | 44 | 1019.5 |
| 20260503181824 | 25 | 190 | 6.4 | 14.5 | 0.00 | 0.00 | 0.00 | 43 | 1019.7 |
| 20260503181557 | 25 | 190 | 4.8 | 14.5 | 0.00 | 0.00 | 0.00 | 43 | 1019.6 |
| 20260503180825 | 25 | 190 | 3.2 | 9.7 | 0.00 | 0.00 | 0.00 | 46 | 1019.7 |
| 20260503180323 | 25 | 190 | 4.8 | 19.3 | 0.00 | 0.00 | 0.00 | 45 | 1019.7 |
| 20260503175824 | 25 | 190 | 8.0 | 19.3 | 0.00 | 0.00 | 0.00 | 45 | 1019.9 |
| 20260503175326 | 25 | 190 | 4.8 | 17.7 | 0.00 | 0.00 | 0.00 | 43 | 1020.0 |
| 20260503174820 | 25 | 190 | 3.2 | 9.7 | 0.00 | 0.00 | 0.00 | 47 | 1020.0 |
| 20260503174319 | 25 | 190 | 4.8 | 16.1 | 0.00 | 0.00 | 0.00 | 44 | 1020.2 |
| 20260503173821 | 25 | 190 | 4.8 | 16.1 | 0.00 | 0.00 | 0.00 | 46 | 1020.2 |
| 20260503173319 | 25 | 190 | 4.8 | 16.1 | 0.00 | 0.00 | 0.00 | 46 | 1020.3 |
| 20260503172822 | 25 | 190 | 4.8 | 11.3 | 0.00 | 0.00 | 0.00 | 47 | 1020.4 |
| 20260503172317 | 25 | 190 | 4.8 | 9.7 | 0.00 | 0.00 | 0.00 | 44 | 1020.5 |
| 20260503171817 | 25 | 190 | 4.8 | 12.9 | 0.00 | 0.00 | 0.00 | 48 | 1020.6 |
| 20260503171312 | 25 | 190 | 4.8 | 12.9 | 0.00 | 0.00 | 0.00 | 44 | 1020.6 |
| 20260503170814 | 25 | 190 | 3.2 | 11.3 | 0.00 | 0.00 | 0.00 | 48 | 1020.7 |
| 20260503170312 | 25 | 190 | 4.8 | 12.9 | 0.00 | 0.00 | 0.00 | 47 | 1020.7 |